Location: Green River State Wildlife Area
(41.6390°N, 89.5080°W)
Time: 17:48:50
(UTC-06:00)

Daily predictions for brighter satellites

Satellite Brightness Start Highest point End
(mag) Time Altitude Azimuth Time Altitude Azimuth Time Altitude Azimuth
Cosmos 2154 Rocket 4.1 16:49:47 10° N 16:56:03 87° E 17:02:18 10° S
Okean 1 Rocket 3.1 16:51:56 10° N 16:56:18 87° W 17:00:38 10° S
Cosmos 1812 4.4 16:54:15 10° ESE 16:56:29 15° E 16:58:44 10° NE
SJ-12 4.3 16:55:01 10° SE 16:58:53 43° ENE 17:02:48 10° N
CZ-4 R/B 1.5 16:57:12 10° SSE 17:01:19 57° ENE 17:05:24 10° N
Okean 3 3.5 16:57:21 10° S 17:01:38 78° E 17:05:56 10° N
COSMO-SKYMED 1 4.2 16:59:22 10° NE 17:02:02 16° E 17:04:41 10° SE
Cosmos 1544 Rocket 4.5 16:58:43 10° NNE 17:02:36 28° ENE 17:06:28 10° SE
Cosmos 158 Rocket 4.1 16:57:25 10° NNW 17:02:44 56° ENE 17:07:53 10° SE
Cosmos 1844 Rocket 3.1 16:58:59 10° S 17:04:15 45° ESE 17:09:35 10° NE
Cosmos 1975 Rocket 3.1 17:01:43 10° S 17:05:57 59° E 17:10:12 10° NNE
Cosmos 1048 Rocket 4.1 17:00:53 10° NNW 17:06:13 87° ENE 17:11:34 10° SSE
Meteor 1-27 Rocket 4.3 17:00:29 10° SSW 17:06:19 67° WNW 17:12:04 10° N
CZ-2C R/B 2.6 17:03:13 10° SSE 17:08:02 56° ENE 17:13:01 10° N
GEOS 3 Rocket 4.4 17:03:47 10° E 17:08:11 30° NE 17:12:36 10° NNW
Cosmos 1238 Rocket 3.5 17:09:13 10° SE 17:11:26 19° E 17:13:39 10° NE
CZ-2C R/B 4.3 17:07:25 10° N 17:11:47 57° WNW 17:16:09 10° SSW
CZ-3A R/B 3.2 17:09:37 10° WSW 17:13:44 70° NNW 17:34:26 10° NE
Cosmos 1844 4.2 17:09:22 10° S 17:14:31 40° ESE 17:19:41 10° NE
Cosmos 1975 4.2 17:13:24 10° NNE 17:16:21 19° ENE 17:19:16 10° ESE
USA 116 4.5 17:11:17 10° NNE 17:16:41 72° ESE 17:21:56 10° S
CRYOSAT 2 4.4 17:11:53 10° NNE 17:16:46 62° E 17:21:36 10° S
BREEZE-M DEB (TANK) 2.0 17:14:27 10° WSW 17:16:47 48° NNW 17:18:34 13° NE
AQUARIUS 4.1 17:15:33 10° SSE 17:20:01 71° ENE 17:24:31 10° N
MOS 1 4.3 17:15:03 10° SSE 17:20:42 80° ENE 17:26:23 10° NNW
Cosmos 1536 Rocket 4.5 17:18:47 10° SSE 17:22:34 28° E 17:26:24 10° NNE
CORIOLIS 4.1 17:17:46 10° SSE 17:23:09 69° ENE 17:28:32 10° N
SPOT 3 Rocket 3.5 17:21:25 10° SSE 17:26:37 86° ENE 17:31:49 10° NNW
PAYLOAD A 4.4 17:22:15 10° S 17:26:59 64° W 17:31:53 10° NNW
SMAP 3.0 17:23:49 10° SSE 17:28:28 86° ENE 17:33:09 10° NNW
YAOGAN 1 2.5 17:25:35 10° SSE 17:29:54 83° ENE 17:34:16 10° N
Cosmos 2278 Rocket 2.9 17:27:16 10° SSE 17:32:18 34° ESE 17:36:35 14° NE
COSMOS 2406 3.5 17:27:59 10° NNW 17:33:43 76° WSW 17:39:26 10° SSE
SL-8 Rocket 3.9 17:28:26 10° N 17:34:38 81° E 17:40:47 10° S
ASTRO F (AKARI) 4.2 17:33:25 10° NNE 17:36:33 60° E 17:39:39 10° S
IDEFIX/ARIANE 42P 2.8 17:37:46 10° S 17:42:57 72° W 17:48:09 10° NNW
USA 32 4.0 17:38:05 10° S 17:43:18 88° E 17:48:34 10° N
Abrixas 4.1 17:41:04 10° NW 17:43:25 21° N 17:44:08 19° NNE
Cosmos 2366 rocket 4.0 17:38:21 10° N 17:44:44 71° E 17:51:00 10° SSE
Cosmos 2218 Rocket 4.0 17:40:14 10° N 17:46:35 83° E 17:52:47 10° S
Cosmos 1484 Rocket 2.8 17:43:16 10° SSE 17:46:57 52° ENE 17:50:35 10° N
OTV 4 2.5 17:44:51 10° WSW 17:47:19 23° SSW 17:49:39 11° SE
CZ-3B DEB 2.1 17:44:56 10° SW 17:48:31 80° SE 17:55:17 17° NE
Meteor 2-19 Rocket 4.4 17:42:30 10° N 17:48:36 89° W 17:54:39 10° S
SKYMED 2 3.7 17:46:12 10° NNE 17:50:25 51° E 17:54:38 10° S
Cosmos 1959 Rocket 4.5 17:44:26 10° N 17:50:39 89° E 17:56:53 10° S
USA 234 4.0 17:45:29 12° NE 17:51:11 46° NNW 17:57:20 10° W
Cosmos 1455 Rocket 2.9 17:48:03 10° N 17:52:28 76° E 17:56:52 10° SSE
Cosmos 2082 Rocket 3.1 17:52:16 10° N 17:56:59 26° NE 17:57:45 25° ENE
Cosmos 1833 Rocket 3.7 17:58:21 10° N 18:02:46 25° NE 18:02:46 25° NE
BREEZE-M DEB (TANK) 4.3 17:56:34 10° WNW 18:03:21 33° NNW 18:05:27 22° NE
NOSS 3-3 (A) 4.0 17:59:49 10° SSW 18:05:51 60° ESE 18:09:41 25° NE
NOSS 3-3 (C) 4.0 17:59:56 10° SSW 18:05:58 60° ESE 18:09:45 25° NE
Cosmos 494 Rocket 3.9 18:01:39 10° NNW 18:06:55 87° ENE 18:12:11 10° SSE
SL-8 R/B 3.9 18:02:45 10° SW 18:07:25 56° SE 18:09:02 37° E
Cosmos 1809 Rocket 4.4 18:04:01 10° N 18:10:08 62° E 18:16:11 10° SSE
Okean 1 3.2 18:07:31 10° S 18:11:34 87° E 18:14:31 18° N
Cosmos 1500 3.1 18:07:56 10° N 18:11:45 62° E 18:15:32 10° SSE
ATLAS 2AS CENTAUR R/B 3.1 18:06:37 10° NW 18:14:44 82° WSW 18:22:16 10° SSE
Meteor 1-28 Rocket 3.2 18:15:04 55° E 18:15:14 55° E 18:18:58 10° S
NOAA 12 4.1 18:11:04 10° SSE 18:16:14 56° ENE 18:21:23 10° N
METEOR-M 4.3 18:11:55 10° SE 18:17:01 48° ENE 18:22:09 10° N
Cosmos 1821 Rocket 4.2 18:14:24 10° N 18:20:09 41° ENE 18:25:50 10° SE
Cosmos 2251 Rocket 4.0 18:15:11 10° NNW 18:20:29 62° WSW 18:25:43 10° S
ISS -2.1 18:18:38 10° W 18:21:41 33° NNW 18:21:49 33° NNW
Cosmos 1812 4.3 18:28:29 10° SW 18:32:01 34° WNW 18:35:36 10° N
Cosmos 1346 Rocket 2.7 18:28:35 10° S 18:32:31 84° W 18:32:45 77° NNW
Tiangong 1 3.7 18:33:33 10° SSW 18:34:09 13° SSW 18:34:09 13° SSW
COSMO-SKYMED 1 3.5 18:34:47 13° N 18:38:26 46° WNW 18:42:34 10° SW
Nadezhda 3 Rocket 3.9 18:34:58 10° S 18:41:10 88° W 18:47:28 10° N
GEOS 3 Rocket 4.3 18:41:02 10° SSE 18:46:01 53° WSW 18:51:02 10° NW
SL-24 R/B - RUBIN 2 4.4 18:41:21 10° SSW 18:47:34 71° ESE 18:48:47 58° ENE
Cosmos 1844 Rocket 4.4 18:43:36 10° WSW 18:48:19 28° NW 18:52:50 11° N
ATLAS 3B CENTAUR R/B 4.0 18:43:24 10° WSW 18:57:05 34° SSW 19:00:10 26° SSE
Cosmos 2297 3.5 18:53:50 10° SSW 18:59:27 87° SE 18:59:27 87° SE
CZ-3A R/B 4.4 18:56:38 10° W 19:05:49 28° NNW 19:07:18 25° N
BREEZE-M R/B 3.9 18:59:22 10° WSW 19:07:58 63° NNW 19:08:02 63° NNW
Meteor 1-19 Rocket 4.4 19:05:21 10° SSW 19:11:06 71° WNW 19:12:12 56° NNW
Cosmos 2278 Rocket 3.5 19:11:12 10° WSW 19:16:20 35° WNW 19:18:29 26° NNW
FALCON 9 R/B 3.3 19:09:56 10° WSW 19:25:57 52° S 19:26:28 51° S
Cosmos 2082 Rocket 3.4 19:35:52 10° NW 19:39:41 38° WNW 19:39:41 38° WNW
Cosmos 1833 Rocket 4.3 19:41:43 10° NNW 19:44:32 29° NW 19:44:32 29° NW
BREEZE M DEB (TANK) 4.3 19:47:13 10° WNW 19:50:35 58° WNW 19:50:35 58° WNW
CZ-3B DEB 4.3 20:19:11 10° WNW 20:24:12 39° NNW 20:24:12 39° NNW
